Regional Weather Roundup
Issued by NWS

Home | Current Version | Previous Version | Text Only | Print | Product List | Glossary Off
Versions: 1 2 3 4 5 6 7 8 9 10 11 12 13 14 15 16 17 18 19 20 21 22 23 24 25 26 27 28 29 30 31 32 33 34 35 36 37 38 39 40 41 42 43 44 45 46 47 48 49 50

000
ASUS45 KPSR 280710
RWRAZ

ARIZONA HOURLY REGIONAL WEATHER ROUNDUP
NATIONAL WEATHER SERVICE PHOENIX AZ
1200 AM MST THU MAY 28 2015

NOTE: FAIR INDICATES FEW OR NO CLOUDS BELOW 12,000 FEET WITH NO
SIGNIFICANT WEATHER AND/OR OBSTRUCTIONS TO VISIBILITY.

AZZ001>003-036-280800-
NORTHWEST ARIZONA

CITY           SKY/WX    TMP DP  RH WIND       PRES   REMARKS
KINGMAN        CLEAR     62  17  17 CALM      30.01R
$$

AZZ004>008-015-016-018-280800-
NORTH CENTRAL ARIZONA

CITY           SKY/WX    TMP DP  RH WIND       PRES   REMARKS
GRAND CANYON   CLEAR     41  35  79 CALM      30.20R
WILLIAMS       CLEAR     45  30  57 S5        30.27S
PRESCOTT       CLEAR     56  28  34 S9        30.12R
FLAGSTAFF      CLEAR     41  30  65 SW3       30.23S
PAYSON         CLEAR     57  28  33 CALM      30.14S
PAGE           CLEAR     70  39  32 W7        30.03R
$$

AZZ009>014-017-280800-
NORTHEAST ARIZONA

CITY           SKY/WX    TMP DP  RH WIND       PRES   REMARKS
WINSLOW        CLEAR     54  28  36 SW7       30.09S
SAINT JOHNS    PTCLDY    54  27  35 S3        30.14S
WINDOW ROCK    PTCLDY    50  28  42 S5        30.19S
SHOW LOW       CLEAR     48  19  32 S3        30.20S
$$

AZZ023-280800-
GREATER PHOENIX AREA

CITY           SKY/WX    TMP DP  RH WIND       PRES   REMARKS
PHOENIX        PTCLDY    80  38  22 SW3       29.87R
BUCKEYE        CLEAR     70  32  24 CALM      29.88S
LUKE AFB       CLEAR     71  38  30 N8        29.86S
DEER VALLEY    CLEAR     74  33  22 NE6       29.89R
SCOTTSDALE     CLEAR     75  40  28 CALM      29.90S
MESA-GATEWAY   CLEAR     72  43  35 CALM      29.91R
$$

AZZ027-028-280800-
SOUTHWEST MARICOPA COUNTY AND PINAL COUNTY

CITY           SKY/WX    TMP DP  RH WIND       PRES   REMARKS
CASA GRANDE    CLEAR     79  34  19 W7        29.89S
GILA BEND      FAIR      74  36  24 S6        29.86S
$$

AZZ503-504-507>509-280800-
SOUTHEAST ARIZONA

CITY           SKY/WX    TMP DP  RH WIND       PRES   REMARKS
TUCSON         CLEAR     73  24  16 SW5       29.99R
DAVIS-MONTHAN  CLEAR     70  24  17 SW6       29.97R
NOGALES        CLEAR     63  23  21 E5        30.06R
SIERRA VISTA   CLEAR     63  18  17 N6        30.11R
DOUGLAS        CLEAR     60  14  16 E7        30.06S
SAFFORD        CLEAR     73  25  16 NW12      29.96R
$$

AZZ020-021-025-026-031-280800-
SOUTHWEST ARIZONA

CITY           SKY/WX    TMP DP  RH WIND       PRES   REMARKS
YUMA           CLEAR     76  51  41 S5        29.85R
$$

CAZ031-033-041-043-047-048-061-280800-
SOUTHERN CALIFORNIA

CITY           SKY/WX    TMP DP  RH WIND       PRES   REMARKS
DOWNTOWN L.A.  CLEAR     59  53  80 CALM      29.99S
L.A. AIRPORT   PTCLDY    58  55  90 W7        30.00S
SAN DIEGO      CLOUDY    63  54  72 W3        30.01S
BURBANK        CLEAR     60  52  74 SE6       29.98S
ONTARIO        CLEAR     60  53  77 SW7       29.99S
RIVERSIDE      CLEAR     61  54  77 CALM      29.99S
PALM SPRINGS   CLEAR     77  51  40 NW3       29.88R
EL CENTRO NAS  CLEAR     77  45  32 S6        29.83S
IMPERIAL       CLEAR     76  48  37 W5        29.81S
BLYTHE         CLEAR     80  39  23 W8        29.83S
$$

NVZ020-UTZ003-280800-
SOUTHERN NEVADA-UTAH

CITY           SKY/WX    TMP DP  RH WIND       PRES   REMARKS
LAS VEGAS      PTCLDY    81  30  15 S13       29.84S
SALT LAKE CITY PTCLDY    54  50  86 SE8       30.11R
$$

NMZ009-TXZ055-280800-
NEW MEXICO-WEST TEXAS

CITY           SKY/WX    TMP DP  RH WIND       PRES   REMARKS
ALBUQUERQUE    PTCLDY    63  28  26 S5        30.07R
EL PASO        CLOUDY    77  51  40 S6        30.01R
$$


........................KEY........................
SKY/WX - SKY CONDITION/WEATHER
TMP    - TEMPERATURE IN FAHRENHEIT
DP     - DEW POINT IN FAHRENHEIT
RH     - RELATIVE HUMIDITY IN PERCENT
WIND   - DIRECTION AND SPEED IN MILES PER HOUR (MPH)
VRB    - VARIABLE WIND DIRECTION
PRES   - MEAN SEA LEVEL PRESSURE IN INCHES OF MERCURY
         F - FALLING PRESSURE   R - RISING PRESSURE
         S - STEADY PRESSURE
VSB    - VISIBILITY IN MILES
HX     - HEAT INDEX IN FAHRENHEIT
WCI    - WIND CHILL INDEX IN FAHRENHEIT
TC     - TEMPERATURE IN CELSIUS WHICH IS ALSO KNOWN AS
         TEMPERATURE IN CENTIGRADE
AFB    - AIR FORCE BASE
         LUKE AFB IS LUKE AIR FORCE BASE
         DAVIS-MONTHAN IS DAVIS-MONTHAN AIR FORCE BASE
NAS    - NAVAL AIR STATION
         EL CENTRO NAS IS EL CENTRO NAVAL AIR STATION
N/A    - NOT AVAILABLE



USA.gov is the U.S. government's official web portal to all federal, state and local government web resources and services.